星链-35213(STARLINK-35213)

导读 | 豆包AI

STARLINK-35213是美国SpaceX公司星链(Starlink)星座的第35213颗卫星,于2025年9月18日发射。星链是全球最大低轨卫星互联网星座,旨在通过近地轨道卫星组网提供全球高速低延迟宽带服务。 2025年是星链规模化运营突破年,该卫星发射后加入星座组网,助力提升全球覆盖能力,尤其推动了手机直连等新服务普及,支撑星链服务覆盖全球超150个国家和地区,近百万用户接入卫星互联网服务。

基本信息
目录编号:
65638
目录名称:
STARLINK-35213
国际标识:
2025-210S
轨道中心:
EARTH
卫星名称:
星链-35213
卫星全名:
星链-35213(STARLINK-35213)
卫星状态:
在轨 (已飞行198 天)
发射日期:
2025-09-18 UTC
国别 :
美国 (US)
星等 :
--
轨道信息
数据来源 国际轨道数据 AOE轨道数据
星历时间 2026-04-03T23:37:37+0800
18小时前
查看轨道信息
2026-03-29T08:00:00+0800
6天前
查看轨道信息
半长轴 6853.585km 6853.213km
偏心率 0.0001161 0.0001323
轨道倾角 53.159° 53.156°
近地点辐角 60.856° 67.770°
升交点赤经 191.076° 217.323°
平近点角 299.255° 104.775°
近地点 474.652km 474.169km
远地点 476.244km 475.983km
周期 94.110分钟 94.102分钟
每日圈数 15.30122 15.302467
详细信息
固有亮度:
5
最大亮度:
2.5
卫星平台:
Starlink V1.0
覆盖范围:
全球
运营商:
太空探索技术公司
运营商所在国:
美国
制造商(研发单位):
太空探索技术公司
制造商所在国:
美国
使用方式:
暂无
卫星简介
Starlink 计划是 SpaceX 推出的全球卫星互联网项目,通过发射低轨道卫星,为全球尤其是偏远地区提供高速、低延迟的互联网服务。自 2019 年起,Starlink 已部署数千颗卫星,旨在缩小全球数字鸿沟,推动互联网普及。该项目还为军事、航空等行业提供通信支持,带来广泛经济效益。
2D轨道图
3D轨道图
轨道高度分析图
轨道倾角分析图
轨道综合分析图
查看轨道综合分析图